Weather History for KLKU - January, 2012

Change the Weather History Date:

Saturday, January 28, 2012

  Actual Average (KCHO) Record (KCHO)
Temperature  
Mean Temperature 42 °F 36 °F  
Max Temperature 57 °F 45 °F 75 °F (1944)
Min Temperature 26 °F 26 °F 3 °F (1935)
Degree Days  
Heating Degree Days 24 29  
Month to date heating degree days 837  
Since 1 July heating degree days 2573  
Cooling Degree Days 0 0  
Month to date cooling degree days 0  
Year to date cooling degree days 0  
Moisture  
Dew Point 29 °F    
Average Humidity 63    
Maximum Humidity 100    
Minimum Humidity 36    
Precipitation  
Precipitation 0.00 in 0.10 in 1.50 in (1976)
Month to date precipitation 2.55  
Year to date precipitation 2.55  
Sea Level Pressure  
Sea Level Pressure 30.01 in    
Wind  
Wind Speed 4 mph (SSW)    
Max Wind Speed 16 mph    
Max Gust Speed 26 mph    
Visibility 10 miles    
Events      
T = Trace of Precipitation, MM = Missing Value Source: NWS Daily Summary

Daily Weather History Graph

Daily Weather History Graph

Search for Another Location

Airport or City:

Trip Planner

Search our weather history database for the weather conditions in past years. The results will help you decide how hot, cold, wet, or windy it might be!

Date:

Astronomy

Jan. 28, 2012 Rise Set
Actual Time 7:19 AM EST 5:29 PM EST
Civil Twilight 6:51 AM EST 5:58 PM EST
Nautical Twilight 6:20 AM EST 6:29 PM EST
Astronomical Twilight 5:49 AM EST 7:00 PM EST
Moon 9:47 AM EST 11:09 PM EST
Length of Visible Light 11h 06m
Length of Day
10h 10m
Waxing Crescent, 27% of the Moon is Illuminated
Jan 28
Waxing Crescent
Jan 30
First Quarter
Feb 7
Full
Feb 14
Last Quarter
Feb 21
New

Hourly Weather History & Observations

Time (EST) Temp. Windchill Dew Point Humidity Pressure Visibility Wind Dir Wind Speed Gust Speed Precip Events Conditions
12:15 AM 35.6 °F 31.7 °F 28.4 °F 75% 29.99 in 10.0 mi WNW 4.6 mph - N/A   Clear
12:35 AM 35.6 °F 31.7 °F 28.4 °F 75% 29.99 in 10.0 mi WNW 4.6 mph - N/A   Clear
12:55 AM 33.8 °F - 26.6 °F 75% 29.99 in 10.0 mi Calm Calm - N/A   Clear
1:15 AM 30.2 °F 25.4 °F 26.6 °F 86% 29.99 in 10.0 mi ESE 4.6 mph - N/A   Clear
1:35 AM 30.2 °F - 26.6 °F 86% 29.99 in 10.0 mi Calm Calm - N/A   Clear
1:55 AM 30.2 °F - 26.6 °F 86% 30.00 in 10.0 mi Calm Calm - N/A   Clear
2:15 AM 30.2 °F - 26.6 °F 86% 30.00 in 10.0 mi Calm Calm - N/A   Clear
2:35 AM 30.2 °F - 26.6 °F 86% 30.00 in 10.0 mi Calm Calm - N/A   Clear
2:55 AM 28.4 °F - 26.6 °F 93% 30.00 in 10.0 mi Calm Calm - N/A   Clear
3:15 AM 30.2 °F - 28.4 °F 93% 30.01 in 10.0 mi Calm Calm - N/A   Clear
3:35 AM 28.4 °F - 26.6 °F 93% 30.02 in 10.0 mi Calm Calm - N/A   Clear
3:55 AM 28.4 °F - 26.6 °F 93% 30.02 in 10.0 mi Calm Calm - N/A   Clear
4:15 AM 26.6 °F - 24.8 °F 93% 30.03 in 10.0 mi Calm Calm - N/A   Clear
4:35 AM 26.6 °F - 24.8 °F 93% 30.02 in 10.0 mi Calm Calm - N/A   Clear
4:55 AM 28.4 °F - 26.6 °F 93% 30.02 in 10.0 mi Calm Calm - N/A   Clear
5:15 AM 26.6 °F - 26.6 °F 100% 30.02 in 10.0 mi Calm Calm - N/A   Clear
5:35 AM 26.6 °F - 24.8 °F 93% 30.03 in 10.0 mi Calm Calm - N/A   Clear
5:55 AM 26.6 °F 22.6 °F 24.8 °F 93% 30.03 in 10.0 mi SSE 3.5 mph - N/A   Clear
6:15 AM 28.4 °F 24.6 °F 26.6 °F 93% 30.04 in 10.0 mi SSE 3.5 mph - N/A   Clear
6:35 AM 28.4 °F 23.3 °F 24.8 °F 86% 30.03 in 10.0 mi SE 4.6 mph - N/A   Clear
6:55 AM 30.2 °F 25.4 °F 28.4 °F 93% 30.04 in 10.0 mi SE 4.6 mph - N/A   Clear
7:15 AM 33.8 °F 30.8 °F 26.6 °F 75% 30.04 in 10.0 mi SSE 3.5 mph - N/A   Clear
7:35 AM 32.0 °F 27.5 °F 26.6 °F 80% 30.05 in 10.0 mi SSE 4.6 mph - N/A   Clear
7:55 AM 33.8 °F 30.8 °F 28.4 °F 81% 30.05 in 10.0 mi SSE 3.5 mph - N/A   Clear
8:15 AM 35.6 °F 31.7 °F 28.4 °F 75% 30.06 in 10.0 mi SSE 4.6 mph - N/A   Clear
8:35 AM 37.4 °F 33.8 °F 28.4 °F 70% 30.05 in 10.0 mi South 4.6 mph - N/A   Clear
8:55 AM 39.2 °F - 28.4 °F 65% 30.07 in 10.0 mi Calm Calm - N/A   Clear
9:15 AM 41.0 °F 39.0 °F 30.2 °F 65% 30.08 in 10.0 mi SSW 3.5 mph - N/A   Clear
9:35 AM 42.8 °F 39.3 °F 30.2 °F 61% 30.08 in 10.0 mi SSW 5.8 mph - N/A   Clear
9:55 AM 44.6 °F 39.7 °F 28.4 °F 53% 30.09 in 10.0 mi South 9.2 mph - N/A   Clear
10:15 AM 44.6 °F 40.2 °F 30.2 °F 57% 30.07 in 10.0 mi South 8.1 mph - N/A   Clear
10:35 AM 46.4 °F 41.9 °F 30.2 °F 53% 30.07 in 10.0 mi SSW 9.2 mph - N/A   Clear
10:55 AM 48.2 °F - 30.2 °F 50% 30.06 in 10.0 mi SSW 9.2 mph - N/A   Clear
11:15 AM 48.2 °F - 30.2 °F 50% 30.06 in 10.0 mi SSW 6.9 mph - N/A   Clear
11:35 AM 50.0 °F - 30.2 °F 47% 30.04 in 10.0 mi South 8.1 mph 16.1 mph N/A   Clear
11:55 AM 50.0 °F - 30.2 °F 47% 30.02 in 10.0 mi SSE 11.5 mph 17.3 mph N/A   Clear
12:15 PM 51.8 °F - 30.2 °F 44% 29.99 in 10.0 mi SSW 10.4 mph - N/A   Clear
12:35 PM 53.6 °F - 32.0 °F 44% 29.98 in 10.0 mi SW 10.4 mph - N/A   Clear
12:55 PM 53.6 °F - 30.2 °F 41% 29.96 in 10.0 mi SW 9.2 mph 17.3 mph N/A   Clear
1:15 PM 53.6 °F - 30.2 °F 41% 29.95 in 10.0 mi SSW 10.4 mph 20.7 mph N/A   Clear
1:35 PM 55.4 °F - 30.2 °F 38% 29.95 in 10.0 mi SW 10.4 mph 16.1 mph N/A   Clear
1:55 PM 55.4 °F - 30.2 °F 38% 29.95 in 10.0 mi WSW 5.8 mph - N/A   Clear
2:15 PM 57.2 °F - 30.2 °F 36% 29.94 in 10.0 mi SW 9.2 mph - N/A   Clear
2:35 PM 57.2 °F - 30.2 °F 36% 29.94 in 10.0 mi SW 8.1 mph 16.1 mph N/A   Clear
2:55 PM 57.2 °F - 30.2 °F 36% 29.94 in 10.0 mi SSW 8.1 mph - N/A   Clear
3:15 PM 57.2 °F - 30.2 °F 36% 29.94 in 10.0 mi SW 6.9 mph - N/A   Clear
3:35 PM 57.2 °F - 30.2 °F 36% 29.94 in 10.0 mi SSW 6.9 mph 16.1 mph N/A   Clear
3:55 PM 57.2 °F - 30.2 °F 36% 29.94 in 10.0 mi WSW 8.1 mph 19.6 mph N/A   Clear
4:15 PM 57.2 °F - 30.2 °F 36% 29.95 in 10.0 mi WSW 9.2 mph - N/A   Clear
4:35 PM 57.2 °F - 30.2 °F 36% 29.95 in 10.0 mi WSW 8.1 mph - N/A   Scattered Clouds
4:55 PM 57.2 °F - 30.2 °F 36% 29.96 in 10.0 mi SW 5.8 mph - N/A   Mostly Cloudy
5:15 PM 55.4 °F - 30.2 °F 38% 29.97 in 10.0 mi WSW 4.6 mph - N/A   Overcast
5:35 PM 55.4 °F - 30.2 °F 38% 29.98 in 10.0 mi West 11.5 mph 18.4 mph N/A   Mostly Cloudy
5:55 PM 53.6 °F - 30.2 °F 41% 30.00 in 10.0 mi West 13.8 mph 19.6 mph N/A   Scattered Clouds
6:15 PM 53.6 °F - 30.2 °F 41% 30.02 in 10.0 mi West 15.0 mph 26.5 mph N/A   Clear
6:35 PM 51.8 °F - 30.2 °F 44% 30.03 in 10.0 mi West 6.9 mph 18.4 mph N/A   Scattered Clouds
6:55 PM 51.8 °F - 30.2 °F 44% 30.06 in 10.0 mi West 16.1 mph 20.7 mph N/A   Scattered Clouds
7:15 PM 50.0 °F - 24.8 °F 37% 30.07 in 10.0 mi WNW 15.0 mph 25.3 mph N/A   Clear
7:35 PM 48.2 °F - 24.8 °F 40% 30.09 in 10.0 mi WNW 16.1 mph - N/A   Clear
7:55 PM 48.2 °F - 23.0 °F 37% 30.11 in 10.0 mi West 6.9 mph - N/A   Clear
8:15 PM 44.6 °F 41.4 °F 23.0 °F 43% 30.11 in 10.0 mi West 5.8 mph - N/A   Clear
8:35 PM 44.6 °F 42.2 °F 23.0 °F 43% 30.12 in 10.0 mi West 4.6 mph - N/A   Clear
8:55 PM 44.6 °F 40.7 °F 21.2 °F 39% 30.12 in 10.0 mi West 6.9 mph - N/A   Clear
9:15 PM 42.8 °F 38.0 °F 21.2 °F 42% 30.13 in 10.0 mi WNW 8.1 mph - N/A   Clear
9:35 PM 42.8 °F 39.3 °F 21.2 °F 42% 30.13 in 10.0 mi West 5.8 mph - N/A   Clear
9:55 PM 41.0 °F 35.8 °F 21.2 °F 45% 30.14 in 10.0 mi West 8.1 mph - N/A   Clear
10:15 PM 42.8 °F 37.5 °F 17.6 °F 36% 30.15 in 10.0 mi WNW 9.2 mph - N/A   Clear
10:35 PM 42.8 °F 38.0 °F 14.0 °F 31% 30.16 in 10.0 mi WNW 8.1 mph - N/A   Clear
10:55 PM 42.8 °F 39.3 °F 12.2 °F 29% 30.17 in 10.0 mi WNW 5.8 mph - N/A   Clear
11:15 PM 37.4 °F - 12.2 °F 36% 30.18 in 10.0 mi Calm Calm - N/A   Clear
11:35 PM 39.2 °F 34.2 °F 12.2 °F 33% 30.18 in 10.0 mi NW 6.9 mph - N/A   Clear
11:55 PM 39.2 °F 35.0 °F 12.2 °F 33% 30.19 in 10.0 mi WNW 5.8 mph - N/A   Clear